Temp
26 27 27 26 27 27 27 27 28 28 27 27 28 28 28 27 27 27 28 29 30 30 30 31 30 28 28 28 29 29 29 28 28 28 28 28 28 28 28 28 28 28 28 28 28 28 28 27 27 27 27 26 26 26 25 25 25 25 24 23 23 23 22 23 23 22 22 22 22 21 20 19 19 18
26 27 27 27 27 27 27 27 28 27 27 27 28 27 27 27 27 27 27 27 29 30 30 30 30 29 28 29 29 29 29 28 28 28 28 28 28 28 28 28 28 28 28 28 28 28 28 28 27 27 27 27 26 26 26 25 25 25 25 24 23 23 22 22 23 22 21 22 22 21 21 20 20 19
26 26 26 26 26 26 27 27 27 27 27 27 27 27 27 27 27 27 27 27 28 29 29 30 30 29 29 29 29 29 29 28 28 27 28 28 28 28 28 28 28 28 28 28 28 28 28 28 28 27 27 27 27 27 26 26 25 25 25 24 24 23 23 22 23 23 22 22 22 22 21 21 21 20
26 25 25 26 26 26 26 26 27 27 27 27 27 27 27 27 27 26 26 27 27 28 29 29 29 29 29 29 28 28 29 29 28 28 28 28 28 29 29 29 29 28 28 28 28 28 28 27 27 27 27 27 27 27 26 26 25 25 25 25 24 24 23 23 23 23 22 21 22 22 22 21 21 20
26 25 25 25 25 26 26 26 26 27 27 27 27 27 27 27 27 27 26 27 27 28 28 28 29 29 29 29 28 28 28 29 28 28 28 28 29 29 29 29 29 29 28 28 28 28 27 27 27 27 27 27 27 27 26 26 25 25 25 25 25 24 23 23 23 23 22 22 22 22 22 21 21 20
25 25 25 25 26 26 26 26 27 27 28 28 28 28 27 27 27 27 27 27 27 27 28 28 28 29 28 28 28 28 28 28 28 28 28 29 29 29 29 29 30 29 29 28 28 27 27 27 27 27 27 27 27 27 26 26 26 25 25 25 25 24 24 23 23 23 23 22 22 22 22 22 21 21
26 26 26 26 26 27 27 26 27 27 27 27 27 27 27 27 27 27 27 26 26 27 27 27 28 28 28 28 28 28 28 28 28 28 28 29 29 29 29 30 30 30 29 28 28 27 27 27 27 27 27 27 27 27 27 27 26 26 25 25 25 25 24 24 23 23 23 23 22 22 22 22 21 21
26 26 26 26 26 26 26 26 27 27 27 27 27 27 27 27 27 27 27 26 26 26 27 27 27 28 28 28 28 28 28 28 28 28 28 28 29 29 29 30 30 30 29 29 28 28 27 27 27 27 27 27 27 27 27 27 26 26 26 25 25 25 25 24 24 23 23 23 23 22 22 22 22 21
26 26 26 26 26 26 26 26 27 27 27 27 27 27 27 27 27 27 27 27 26 26 27 27 27 27 28 28 28 28 28 28 28 28 28 28 28 28 28 29 30 30 30 29 29 28 28 27 27 26 26 27 27 27 27 27 27 26 26 25 25 25 25 25 24 24 23 23 23 23 23 22 22 22
26 26 26 26 26 26 26 27 27 27 27 27 27 27 27 27 27 27 27 27 27 26 27 27 27 28 28 28 28 28 28 28 28 28 28 28 28 28 28 28 29 29 29 29 28 28 28 28 27 27 26 27 27 27 27 26 26 26 26 26 25 25 25 25 25 24 24 23 23 23 23 23 23 22
27 27 26 27 26 26 26 27 27 27 27 27 27 27 27 26 26 27 27 27 27 27 27 28 28 28 28 28 28 28 28 27 28 28 28 28 28 28 27 27 28 28 28 28 28 29 28 28 27 27 27 27 27 27 27 26 26 26 26 26 25 25 26 26 25 25 24 24 23 23 23 23 23 22
27 27 27 27 27 27 27 26 26 27 27 27 27 27 26 26 26 26 27 27 27 27 27 28 28 28 28 28 28 29 29 28 28 28 28 28 28 27 27 27 27 27 27 28 28 28 28 28 28 28 28 27 27 27 27 26 26 26 26 26 26 25 26 26 25 25 25 24 24 24 23 23 23 23
27 27 27 28 28 27 27 26 26 26 26 26 26 26 26 26 26 26 26 27 27 27 27 28 28 28 28 29 29 29 29 29 29 29 28 28 28 28 27 27 27 27 27 28 28 27 27 28 28 28 28 28 28 28 27 27 26 26 26 26 26 26 26 26 26 25 25 25 24 24 24 24 23 23
27 27 28 28 27 27 26 26 26 26 26 25 25 25 25 25 25 25 26 26 27 27 27 28 28 28 29 29 29 29 29 29 29 29 28 28 28 27 27 27 27 27 27 27 27 26 27 27 27 27 28 28 28 28 28 27 26 26 26 26 26 26 26 26 26 26 25 25 25 24 24 24 24 24
27 27 27 28 27 27 26 26 26 26 26 26 25 25 25 25 25 25 25 26 26 27 27 28 28 29 29 29 29 29 29 29 29 29 28 28 27 27 27 27 27 27 27 27 26 26 26 27 27 27 27 28 28 29 28 27 26 26 26 26 26 26 26 26 26 26 26 25 25 25 24 24 24 24
27 27 27 27 28 27 27 26 26 25 25 25 26 26 26 26 26 25 25 25 26 26 27 27 28 28 28 28 28 29 29 29 28 28 27 27 27 27 27 27 27 27 27 26 26 26 27 27 27 28 28 28 28 28 28 27 26 26 26 26 26 26 26 26 26 26 26 26 25 25 25 24 24 24
27 27 27 27 27 27 27 26 26 25 25 25 25 26 26 26 26 26 26 26 26 26 26 26 27 27 27 27 28 27 27 27 26 27 27 27 27 27 27 27 27 27 26 26 26 27 27 27 28 28 29 28 28 28 28 27 26 26 26 26 26 26 26 26 26 26 26 26 26 25 25 25 24 24
27 26 26 26 27 27 26 25 25 25 25 25 25 25 25 26 26 26 26 26 26 26 25 25 26 26 26 26 26 26 26 25 25 26 26 26 26 26 26 26 26 26 26 26 26 27 27 28 28 29 29 29 29 28 28 27 27 26 26 26 26 26 26 26 26 26 26 26 26 26 25 25 24 24
26 26 26 26 26 26 25 24 24 24 24 24 24 25 25 26 26 26 26 26 26 26 25 25 26 26 26 26 26 26 25 25 25 25 25 25 25 25 25 25 26 26 27 27 28 27 27 27 28 29 29 29 29 29 28 28 27 27 26 26 26 26 26 26 26 26 26 26 26 26 26 25 25 24
25 25 25 25 25 25 24 23 24 24 24 24 24 25 25 25 26 26 26 26 26 26 26 25 25 25 25 25 25 25 25 25 24 24 25 25 25 26 26 26 27 28 28 29 29 28 28 28 28 28 28 28 28 28 28 28 27 27 26 26 26 26 26 26 26 26 26 26 26 26 26 25 25 24
24 24 23 24 24 24 23 22 23 23 23 23 23 24 25 25 25 25 25 25 25 25 25 25 24 24 24 24 24 24 24 24 24 23 23 24 26 26 27 27 28 28 28 29 28 28 28 28 28 28 28 28 28 28 28 28 28 27 26 26 25 25 26 26 26 26 26 26 26 26 26 26 25 24
23 23 22 23 23 22 22 22 22 22 22 22 23 24 24 25 25 25 25 25 25 24 24 24 24 24 24 24 24 24 24 24 23 23 23 24 25 26 27 27 28 28 28 28 27 27 27 27 27 27 28 27 28 28 29 28 28 27 26 26 26 25 25 25 25 25 26 26 26 26 26 26 25 25
22 21 21 22 22 22 22 21 21 21 21 21 22 23 24 24 25 24 24 24 24 23 23 23 23 24 24 24 24 24 24 24 24 24 23 24 25 26 26 27 27 27 27 28 27 26 27 27 27 27 27 27 28 28 28 28 28 27 27 27 26 26 26 25 25 25 25 25 25 25 25 25 25 25
23 21 21 21 21 21 21 21 21 21 21 21 21 21 22 23 23 23 23 22 22 22 22 23 23 23 24 24 24 24 24 24 24 24 24 24 25 25 26 26 26 27 27 27 26 26 26 26 26 27 26 27 27 27 28 28 28 27 27 27 27 27 26 26 25 25 25 25 25 25 25 24 24 24
23 22 21 21 21 21 21 21 21 21 21 22 22 21 21 22 22 22 22 22 21 22 23 23 23 24 24 25 25 25 25 25 25 24 24 24 24 24 25 26 26 26 26 26 26 25 25 25 26 26 26 26 27 27 27 27 27 27 27 27 27 27 26 26 26 25 25 24 24 24 24 24 24 24
22 22 22 21 21 21 21 21 22 22 22 22 22 22 22 22 22 22 22 22 22 22 23 24 24 24 25 25 25 25 25 25 25 24 24 24 24 24 24 24 25 25 25 25 25 24 24 24 25 25 25 26 26 26 27 27 27 27 27 27 27 27 26 26 26 26 26 25 25 24 24 24 24 24
22 22 21 21 21 21 21 22 22 22 22 22 22 22 22 22 22 22 22 22 21 22 23 23 23 24 24 25 25 25 25 25 24 23 23 24 24 24 24 24 24 24 24 24 24 23 23 23 23 24 24 25 25 26 26 27 27 27 27 27 27 27 26 26 26 26 26 26 25 25 24 24 24 24
21 20 20 20 21 21 21 21 22 22 22 22 22 22 22 22 22 22 22 22 22 22 22 23 23 24 24 24 24 24 23 23 22 22 23 23 23 23 23 23 23 23 23 23 23 23 23 23 23 24 24 24 24 25 26 26 26 26 26 26 26 26 26 26 26 26 26 26 26 25 24 24 23 23
20 20 20 20 21 21 21 21 22 22 22 22 22 22 22 22 22 22 22 22 22 22 22 23 23 24 24 24 23 23 22 22 22 23 23 23 23 23 23 23 23 23 23 24 24 24 23 23 23 23 23 23 23 24 24 25 25 25 26 26 26 26 26 25 25 26 26 26 26 25 25 24 24 23
19 19 19 20 20 20 21 21 21 22 21 22 22 22 22 22 22 22 22 22 22 22 22 23 23 24 24 23 23 22 22 22 23 23 23 23 23 23 23 23 23 24 24 24 24 24 24 24 23 23 23 23 23 23 23 24 24 25 25 25 25 25 26 26 25 25 25 25 26 25 25 25 24 24
18 18 19 20 20 20 21 21 22 22 21 21 22 22 22 22 22 22 22 22 22 22 22 22 23 23 23 22 22 22 22 22 22 22 22 22 22 23 23 23 23 24 24 25 24 24 24 23 23 23 23 23 23 23 23 23 23 24 25 25 25 25 26 26 26 26 25 25 25 25 25 25 25 24
17 17 18 19 20 20 21 22 22 22 22 22 22 22 23 23 23 22 22 21 21 22 22 22 22 22 22 22 22 22 22 22 22 22 21 21 21 22 22 22 23 24 24 24 24 24 23 23 23 22 22 22 23 23 23 23 24 24 24 25 25 25 25 26 26 26 26 25 25 25 25 25 25 25
17 17 18 20 21 21 22 22 23 23 23 23 23 23 23 22 23 23 23 22 22 22 22 21 21 21 21 21 22 22 22 22 21 21 21 21 21 21 22 22 23 23 23 24 24 24 23 23 22 22 22 22 22 22 23 23 24 24 24 24 25 25 25 26 26 26 26 25 25 25 25 25 25 25
17 17 19 21 21 22 22 22 22 23 23 23 23 23 23 23 23 23 23 23 23 22 21 21 21 21 21 21 22 22 22 22 22 21 21 21 21 21 22 22 23 23 23 23 23 23 23 23 22 22 22 22 22 23 23 23 24 24 24 24 25 25 25 25 26 26 25 25 25 25 25 25 26 25
17 18 20 21 21 21 21 22 22 22 22 22 22 22 22 23 23 23 22 22 22 21 21 21 21 21 21 21 22 22 21 21 21 21 21 22 22 22 22 22 23 23 23 23 23 23 23 23 23 23 23 23 24 24 24 24 24 24 24 24 25 25 25 25 25 25 24 24 25 25 25 25 26 26
17 19 20 20 21 21 21 21 21 21 22 22 21 22 22 22 22 22 22 21 21 21 21 21 21 21 21 21 21 21 21 21 21 21 21 22 22 22 22 22 23 23 23 23 23 23 23 23 23 23 24 24 24 25 25 25 24 24 24 24 24 24 24 24 23 23 23 23 24 24 24 25 25 26
18 19 19 20 20 20 21 21 21 21 21 21 21 21 21 21 21 21 21 20 20 20 21 21 21 21 21 21 21 21 21 21 21 21 21 21 22 22 22 22 22 22 23 23 23 23 23 23 23 23 24 24 24 24 25 25 24 24 24 23 23 23 23 23 23 23 23 23 23 24 24 25 25 26
17 18 19 19 20 19 20 20 20 20 20 20 20 20 20 20 21 20 20 20 20 20 20 20 21 21 21 21 21 20 20 21 21 21 21 21 21 22 22 22 22 22 22 22 22 22 22 23 23 23 24 24 23 24 24 24 24 24 24 23 23 22 22 22 22 23 23 24 23 23 23 24 25 25
17 18 18 18 18 19 19 19 19 19 19 19 19 19 20 20 20 20 20 20 20 20 19 20 20 20 20 20 20 20 20 20 20 20 20 21 21 21 21 21 21 21 21 21 21 22 22 23 23 23 23 23 23 23 23 23 23 23 23 23 22 22 22 22 22 23 23 24 23 22 22 23 24 24
17 17 17 18 18 18 18 18 18 18 18 18 18 18 19 19 19 19 19 19 19 19 19 19 19 19 19 19 19 20 20 20 20 20 20 20 20 20 20 20 20 20 20 21 21 22 22 22 23 22 21 21 21 21 21 21 22 22 22 23 23 23 23 23 23 23 23 23 23 22 21 22 23 23
16 16 17 17 17 17 17 17 18 18 18 18 18 18 18 18 18 18 18 18 17 17 18 18 18 18 19 19 19 19 19 19 19 19 19 19 19 19 19 19 19 20 20 21 21 21 21 21 21 20 20 20 20 20 21 22 22 22 23 23 24 24 23 23 23 23 23 23 22 21 21 21 22 22
15 16 16 16 16 16 16 17 17 17 17 17 17 17 17 17 17 17 17 17 17 17 17 18 18 18 18 19 19 19 19 19 19 19 19 19 19 19 19 19 19 19 20 20 20 20 20 20 20 20 20 20 20 21 21 22 22 22 23 23 23 24 24 23 23 22 22 22 22 21 21 21 21 21
15 15 15 15 15 15 15 15 16 16 16 16 16 16 16 16 17 17 17 17 17 17 17 17 17 17 18 18 18 18 18 18 18 18 18 18 18 18 18 18 18 18 19 19 19 19 19 19 20 20 20 20 20 21 21 21 21 22 22 22 23 23 23 23 23 23 22 22 22 22 22 22 21 21
14 14 14 14 14 14 14 14 15 15 14 15 15 15 15 16 16 16 17 17 17 16 16 16 16 16 17 17 17 17 17 17 17 17 17 17 17 17 17 18 18 18 18 18 18 19 19 19 19 19 20 20 20 20 20 21 21 21 21 21 22 22 22 23 23 23 23 23 23 22 22 22 22 22
12 12 13 13 13 13 13 13 13 13 13 14 14 14 15 15 15 15 15 15 15 15 15 15 15 15 15 15 15 15 15 15 15 15 16 16 16 17 17 17 17 17 18 18 18 18 18 18 19 19 19 19 20 20 20 20 20 20 20 20 21 21 22 22 23 23 24 24 24 23 23 23 23 23
Height
885 885 885 885 884 884 884 883 882 883 884 883 883 883 882 883 884 884 883 879 875 874 874 872 872 873 873 873 872 871 870 869 868 867 865 864 863 861 859 857 856 854 853 851 850 849 847 846 845 844 842 841 839 838 837 836 834 833 832 831 829 828 827 826 825 823 822 821 820 819 818 818 819 820
885 885 884 884 884 884 883 883 883 883 884 883 883 883 883 883 883 883 883 881 877 875 875 873 872 872 872 872 871 870 869 868 868 867 865 864 863 860 858 857 855 854 852 850 849 847 846 845 843 842 841 840 838 837 836 835 833 832 831 830 829 828 827 826 825 823 822 822 820 819 818 818 818 819
884 884 884 884 884 884 884 883 883 883 883 883 883 882 882 883 882 881 881 881 879 877 875 874 873 872 872 871 871 870 869 868 867 866 865 863 862 859 857 856 855 853 852 850 848 846 845 843 842 841 840 839 837 836 834 833 832 831 830 829 828 827 826 825 825 824 822 822 821 820 819 818 818 819
884 884 884 884 884 884 884 883 883 883 883 883 882 882 882 882 882 881 881 880 879 877 875 874 873 872 871 871 870 870 868 867 866 865 864 863 861 859 857 855 854 852 851 849 847 846 844 843 841 840 839 838 836 835 833 832 831 830 829 828 827 826 826 825 824 824 823 822 821 821 820 819 818 819
884 884 884 884 884 884 883 883 883 882 882 882 881 881 881 881 880 880 880 879 878 877 876 874 873 872 871 870 870 869 868 867 866 865 863 862 860 858 857 855 852 851 850 849 847 845 844 842 841 839 838 837 835 834 832 831 830 829 828 827 826 825 825 824 824 823 822 822 821 821 820 819 819 819
883 883 883 883 883 883 883 883 882 882 881 880 880 880 880 880 880 880 880 879 878 876 875 874 873 872 871 870 869 869 868 867 866 864 863 861 859 857 856 854 852 849 848 848 846 844 843 841 840 839 837 836 834 832 831 829 828 827 826 825 825 824 824 823 823 823 822 821 821 821 820 820 819 819
882 882 882 882 882 881 881 882 882 881 881 881 880 880 880 880 880 879 879 879 878 876 875 874 873 871 871 870 869 868 867 866 865 864 862 860 858 857 855 853 851 848 847 846 844 843 841 840 839 837 836 834 833 831 829 828 827 826 825 824 824 823 823 823 822 822 822 821 820 820 820 820 819 819
881 881 881 881 881 881 881 881 881 880 880 880 880 880 879 879 879 878 878 878 877 876 875 874 872 871 870 869 868 867 866 865 864 863 861 859 857 856 854 852 850 848 846 844 843 841 840 838 837 836 835 833 831 829 828 826 825 824 823 823 822 822 822 821 821 821 821 820 820 819 819 819 819 819
881 880 880 880 880 880 880 880 880 879 880 880 879 879 878 878 878 878 877 877 876 876 874 873 872 871 869 868 867 867 865 864 863 861 860 858 856 854 853 851 849 847 845 843 841 840 839 837 836 834 833 831 830 828 826 825 824 823 822 822 821 821 820 820 820 820 820 820 819 819 818 818 818 818
879 879 879 879 879 879 879 879 879 879 879 879 878 878 878 878 877 877 876 875 875 874 873 872 870 869 868 867 866 865 864 863 861 860 858 856 855 853 851 849 847 846 844 842 841 839 838 836 835 833 831 830 828 827 825 824 822 821 821 820 820 820 819 819 819 819 819 819 819 818 818 818 817 817
877 877 877 877 877 878 878 878 878 878 878 878 878 877 877 877 876 875 875 874 873 873 871 870 868 867 866 865 864 863 862 861 860 858 856 854 853 852 850 848 846 844 843 841 840 838 837 835 833 831 829 828 826 825 824 822 821 820 819 819 818 818 818 818 818 818 818 818 818 818 817 817 817 816
875 875 876 875 876 876 876 877 877 877 877 877 877 877 876 876 875 874 874 873 872 871 869 868 867 866 865 864 862 861 860 859 858 857 855 854 852 850 849 847 845 843 842 840 838 837 835 833 831 830 828 826 825 823 822 821 820 819 818 817 817 817 817 817 817 816 817 817 817 817 817 817 816 816
874 874 874 874 874 874 874 875 875 875 876 876 876 875 875 875 874 874 873 872 871 870 868 867 866 864 863 862 860 859 858 857 856 855 854 853 851 849 847 845 844 842 841 839 837 836 834 832 830 828 826 825 823 822 821 820 819 818 817 816 815 815 815 815 815 815 815 815 815 815 816 816 815 815
872 872 872 872 872 873 873 874 874 874 874 874 874 874 874 874 873 873 872 871 870 869 868 866 865 863 861 860 859 858 857 856 854 853 852 851 850 848 846 843 842 841 839 838 836 834 832 830 828 826 825 823 822 821 820 819 819 817 816 815 814 814 813 813 814 814 814 814 814 814 814 814 814 814
871 871 871 871 871 871 871 872 872 872 872 872 872 872 872 872 872 871 871 870 869 868 867 865 864 862 860 859 858 857 855 854 853 852 851 850 848 847 844 842 840 839 838 836 834 832 830 828 827 824 823 822 821 820 819 818 817 816 815 814 813 812 812 812 812 812 812 812 812 812 813 813 813 813
870 870 870 869 869 869 869 870 870 870 870 870 870 870 870 869 869 869 869 868 867 867 865 864 862 861 859 858 857 856 854 853 852 851 850 848 847 845 843 841 838 837 836 834 831 829 828 827 825 823 821 820 819 818 817 816 816 815 813 812 811 810 810 810 810 810 810 811 811 811 811 811 811 811
868 868 868 868 868 868 868 868 869 869 869 868 868 867 867 867 867 866 866 866 865 864 864 862 861 860 858 857 856 855 854 852 851 849 848 847 845 843 841 840 837 835 834 833 830 827 825 825 823 820 819 818 817 816 815 814 814 813 812 811 810 809 808 808 808 808 808 809 809 809 809 809 809 809
866 867 867 867 867 867 867 867 867 867 867 867 866 866 865 865 865 864 863 863 862 862 861 860 859 858 857 856 854 854 853 851 850 848 846 845 843 841 840 838 836 833 832 831 828 825 824 823 821 819 817 816 815 814 813 812 812 811 810 809 808 807 807 806 806 806 806 806 807 807 807 807 807 807
865 865 865 865 865 865 865 865 865 865 865 865 865 864 864 863 863 862 862 861 860 860 859 858 857 856 855 854 853 852 851 850 848 847 845 843 842 840 838 836 833 830 829 828 826 823 821 821 819 817 815 814 813 812 812 810 809 809 808 807 807 806 805 805 804 804 804 804 804 804 804 804 805 805
863 864 864 864 864 864 863 863 863 863 863 863 863 862 862 862 861 861 861 860 859 858 857 856 855 854 853 852 850 850 849 848 847 846 844 842 840 839 836 833 830 828 826 826 824 821 819 819 818 815 814 813 811 810 810 808 807 807 806 806 805 804 803 803 802 801 801 801 802 802 802 802 802 802
862 862 862 863 863 863 862 861 861 861 861 861 861 861 860 859 859 858 858 858 857 856 855 854 853 851 850 849 848 847 846 845 845 844 842 840 839 837 834 830 828 826 824 823 823 820 818 818 817 814 812 811 809 808 807 806 805 804 803 803 803 802 802 801 800 799 799 799 799 799 799 799 799 799
860 860 860 861 861 861 860 860 860 860 860 861 860 860 858 857 856 856 856 856 855 854 853 852 851 849 848 847 845 844 843 843 843 842 841 839 838 836 832 829 827 824 822 822 822 820 818 817 816 814 811 809 807 806 805 804 804 803 802 801 800 799 799 799 798 797 796 796 796 796 795 796 796 796
859 859 858 858 859 859 859 859 859 859 859 859 859 859 857 856 855 855 854 854 854 853 852 851 849 847 846 845 843 842 841 840 840 839 838 838 836 834 831 829 826 823 821 821 821 819 817 816 815 813 811 808 805 804 804 803 803 802 801 800 798 797 797 796 795 795 794 793 792 792 792 792 792 792
857 857 857 857 857 858 858 858 858 858 857 857 857 857 857 855 854 853 853 852 852 851 850 849 848 846 844 843 841 840 839 838 837 836 835 835 834 832 829 828 826 822 820 820 820 818 817 816 814 812 811 808 805 802 802 801 801 800 799 798 797 796 794 794 793 792 791 790 790 789 789 789 789 789
856 856 857 857 857 857 857 857 857 856 856 856 856 856 855 854 853 852 851 850 850 849 848 847 845 844 842 841 839 838 837 836 835 834 833 832 832 830 828 826 824 822 820 821 820 818 817 815 813 811 810 808 804 802 800 799 798 798 797 796 795 794 793 792 791 790 788 787 787 787 786 786 786 786
857 857 857 857 857 857 857 856 856 856 855 855 854 854 853 853 852 851 849 848 848 847 846 845 843 842 841 839 838 836 835 834 833 832 832 831 829 828 827 826 823 821 819 819 819 818 816 814 812 810 808 806 803 801 799 797 796 796 795 794 793 792 792 791 791 789 788 786 784 784 783 783 783 783
857 858 858 858 857 856 856 855 855 854 854 853 853 853 852 851 850 849 847 846 846 845 845 843 842 841 839 838 836 835 834 833 832 831 830 829 828 826 825 824 822 820 818 817 817 817 815 812 811 810 808 805 802 800 797 795 794 794 793 792 791 791 790 789 788 787 786 785 783 781 780 780 780 780
858 858 858 857 856 855 855 854 853 853 852 852 852 851 850 849 848 847 846 845 845 844 843 842 841 839 838 837 836 835 834 833 831 830 829 827 826 825 823 822 820 819 817 816 815 814 813 811 809 808 807 805 802 799 796 794 793 792 791 790 789 789 788 787 786 785 784 783 781 779 777 777 776 776
857 857 856 856 855 854 854 853 852 851 850 850 849 849 848 847 846 845 845 844 844 843 842 840 839 838 837 836 835 834 833 832 830 829 828 826 825 823 821 820 818 817 815 814 813 812 811 809 807 806 805 804 802 799 796 793 791 790 790 788 787 786 785 785 784 782 781 780 779 777 776 775 773 772
857 856 855 854 853 853 852 851 850 849 848 848 847 846 846 845 844 844 843 843 842 841 840 839 838 836 835 835 834 833 832 831 829 828 826 825 823 822 820 818 817 815 814 812 811 810 809 808 806 804 802 801 800 798 796 793 789 787 788 787 785 783 782 781 780 779 778 777 775 774 773 773 772 770
856 855 854 852 851 850 849 848 847 847 846 846 845 844 844 843 843 843 842 842 841 840 839 838 836 835 835 834 833 832 831 829 828 827 826 824 823 821 820 818 815 813 812 810 810 809 807 806 805 803 801 799 797 796 794 792 789 786 785 785 784 781 779 778 777 776 775 774 772 771 769 769 769 768
855 854 852 850 850 849 847 847 846 845 844 844 844 843 843 842 842 841 840 839 839 838 838 837 836 835 834 833 832 831 830 828 827 826 825 824 822 821 819 817 814 812 810 809 808 807 806 805 803 802 800 798 795 793 792 789 787 784 782 781 780 778 776 775 773 771 771 770 768 766 765 765 764 763
852 851 850 849 848 847 846 846 845 844 843 843 842 842 841 841 840 839 839 838 837 837 837 836 835 834 833 832 831 830 829 827 826 826 824 823 821 820 818 816 813 811 810 808 807 806 804 803 801 800 798 795 793 791 789 786 784 782 780 778 777 774 772 771 770 768 768 766 764 762 761 760 759 759
851 850 849 848 847 846 846 845 844 843 842 842 841 841 840 840 839 838 838 837 836 836 836 835 834 833 832 831 830 829 827 826 825 824 823 822 820 819 817 814 812 810 809 806 805 804 802 801 799 797 795 793 790 788 787 784 781 779 778 776 774 772 770 769 767 766 764 763 761 759 757 756 755 754
850 849 848 847 846 846 845 844 843 842 841 841 840 840 839 839 838 837 837 836 836 836 835 834 833 833 832 830 829 828 827 825 824 823 821 820 819 817 815 813 810 809 807 805 803 802 800 799 797 795 792 790 787 784 782 781 779 777 775 774 772 770 768 766 765 764 762 761 759 756 753 751 750 750
850 849 848 847 846 845 844 843 842 842 841 841 840 839 839 838 837 837 836 836 836 835 834 833 833 832 831 829 828 827 826 824 823 821 820 818 817 815 813 811 809 807 805 803 801 800 798 797 796 793 790 787 784 780 777 777 777 776 773 771 770 768 766 764 763 762 760 759 757 754 750 748 746 746
849 848 847 846 845 844 844 843 842 842 841 841 840 839 839 838 837 836 836 835 835 834 833 832 831 830 829 828 827 826 825 823 822 820 818 817 815 813 811 809 807 806 804 802 800 799 797 795 794 792 789 786 783 779 775 773 774 773 772 770 768 766 765 763 761 758 756 756 754 752 749 746 743 743
849 848 847 846 845 844 844 843 842 842 841 841 840 839 838 837 836 836 835 834 833 832 831 831 830 829 828 828 827 826 824 822 821 819 817 815 813 812 810 808 806 804 802 800 799 797 796 794 792 790 787 784 781 778 774 771 770 769 769 768 765 763 762 761 758 755 753 751 751 750 747 744 742 741
848 847 846 845 845 844 844 843 842 842 841 840 839 838 837 836 835 835 834 833 832 831 830 830 829 829 828 827 826 825 823 821 820 818 816 814 812 810 809 807 805 803 801 799 797 795 793 791 789 787 785 783 780 778 776 773 768 765 764 764 762 759 758 757 755 752 749 747 747 747 745 743 740 739
847 846 846 845 844 843 843 842 841 841 840 839 839 838 837 836 835 834 833 832 831 830 830 829 828 828 827 826 825 823 821 820 819 817 815 814 811 810 808 806 804 802 799 797 794 792 790 789 787 786 785 783 781 779 776 772 766 761 759 757 756 754 753 752 751 748 745 743 744 744 742 739 737 735
847 846 845 845 844 843 842 841 841 840 839 838 838 837 836 835 834 833 832 831 831 830 829 828 827 827 826 824 823 822 820 819 817 816 814 812 810 808 807 805 803 800 797 794 792 790 788 787 786 785 784 781 779 776 772 767 762 758 755 753 752 750 749 747 746 745 742 740 741 740 737 735 734 733
847 846 845 844 844 843 842 841 840 839 839 838 837 836 835 834 833 832 831 830 830 829 828 827 826 825 824 823 822 820 819 817 816 814 813 810 808 806 805 803 801 799 796 793 791 788 787 785 784 782 781 778 776 773 768 764 760 756 752 750 748 747 745 742 741 740 738 737 737 736 732 731 731 730
846 846 845 844 843 843 842 841 841 840 839 838 837 836 835 833 832 831 830 829 828 827 827 826 825 824 822 821 820 819 818 816 814 812 811 809 807 805 803 802 800 797 795 792 789 787 785 783 781 780 777 775 773 770 765 762 759 755 751 747 744 743 741 739 737 735 733 732 731 731 729 727 726 724
846 845 845 844 843 843 842 841 840 839 838 837 836 835 834 832 831 830 829 828 827 826 825 824 824 822 821 820 819 818 816 815 813 812 810 808 806 804 802 800 797 795 793 790 787 785 783 781 779 777 774 772 770 767 763 760 757 754 750 747 743 740 738 736 733 730 727 724 723 723 723 722 720 717
846 845 844 844 843 842 841 841 840 839 838 837 835 834 833 831 830 829 828 827 827 826 825 824 823 822 821 819 818 816 815 814 813 811 809 807 804 802 800 797 795 793 791 788 786 783 781 779 777 775 772 769 767 764 761 758 755 752 749 746 742 739 736 733 730 726 722 719 717 716 716 715 715 713
Wind_Speed
3 3 3 4 5 5 5 6 5 3 4 5 5 5 4 4 4 4 3 5 6 5 7 6 3 4 7 8 8 9 8 10 13 11 10 10 10 12 13 14 14 15 15 16 16 16 16 16 16 15 15 14 14 13 13 13 13 14 15 14 14 14 14 14 16 16 16 14 10 5 3 2 9 14
4 4 4 4 5 5 5 6 5 3 4 6 6 5 4 4 4 5 4 4 6 7 8 8 6 6 7 8 9 10 9 10 12 11 9 10 11 12 12 13 15 16 17 17 17 17 17 17 16 15 14 13 14 14 13 13 13 13 14 14 13 13 13 13 14 15 15 14 12 6 4 2 4 12
3 3 4 4 5 5 6 6 6 5 5 6 6 5 5 5 5 6 7 5 5 7 9 9 8 8 8 8 9 9 9 9 11 10 9 10 12 13 12 13 15 16 18 18 17 17 16 15 15 14 13 14 14 14 14 13 13 13 13 14 13 12 12 11 11 13 13 13 13 9 4 3 2 8
3 4 4 5 5 5 5 6 6 6 5 6 6 6 6 6 6 6 7 7 6 8 9 9 9 9 9 8 8 9 9 9 10 10 9 11 13 12 12 13 14 15 17 19 18 17 15 14 14 13 13 14 14 14 14 13 12 13 13 13 13 12 11 10 10 10 12 12 12 10 5 2 2 4
4 4 4 5 5 5 6 6 6 6 6 6 6 6 6 6 6 5 6 8 8 9 9 9 10 9 9 8 7 8 10 9 10 11 10 11 12 12 12 14 14 14 16 19 18 16 14 14 14 14 14 13 13 14 14 13 12 12 12 12 12 11 10 9 8 8 10 11 11 10 7 2 0 2
5 5 5 5 5 5 5 6 7 7 7 7 7 6 6 7 7 5 6 8 9 9 9 10 10 9 8 9 8 9 10 10 11 11 12 12 12 12 13 14 15 14 16 20 20 17 15 14 14 15 15 14 13 13 13 13 13 12 12 12 11 10 9 7 6 7 7 9 10 10 9 5 0 2
5 5 5 5 5 5 5 5 6 7 6 7 7 7 7 7 8 7 6 7 9 10 10 11 11 10 9 9 9 9 10 10 11 11 12 13 13 13 14 15 15 14 18 22 21 19 18 16 15 17 17 15 13 12 13 13 13 12 12 11 9 9 8 7 5 5 5 6 8 9 9 7 2 2
6 6 6 6 5 5 5 6 6 6 6 6 7 7 7 6 7 7 7 7 8 10 11 11 11 11 11 10 9 10 11 11 11 11 12 13 14 14 15 15 15 16 19 20 19 20 19 17 17 20 20 17 13 12 12 12 12 11 10 9 8 9 9 7 5 5 4 4 6 8 8 7 4 1
7 7 7 6 6 6 6 6 7 6 5 6 7 7 7 7 7 7 8 8 8 10 11 12 12 11 11 11 10 11 11 12 13 12 13 13 13 14 15 16 16 17 18 18 18 19 18 17 18 21 22 19 14 11 11 12 11 11 10 9 8 8 8 7 6 5 4 3 4 7 7 7 6 2
8 7 7 7 7 7 7 7 7 6 6 7 8 7 7 8 8 8 9 9 9 10 11 11 12 12 11 11 12 11 11 12 13 13 13 13 13 14 16 17 17 17 17 17 18 17 17 17 19 20 21 20 16 12 10 10 10 10 10 9 8 8 8 7 6 5 5 3 2 4 6 7 6 4
9 8 8 8 8 8 8 7 7 7 7 7 7 7 7 8 8 9 9 9 9 10 10 11 12 12 12 13 13 13 12 12 12 12 13 13 14 14 15 16 17 17 17 17 17 16 18 20 19 18 19 19 17 14 10 8 8 9 9 9 8 8 7 7 6 6 6 5 3 3 5 6 6 5
9 9 9 9 9 8 8 7 8 7 7 7 7 8 8 8 9 10 10 10 10 10 11 11 12 12 13 13 14 14 13 12 12 12 12 14 15 16 16 17 17 17 17 17 18 18 19 20 18 18 18 17 16 15 12 8 7 8 9 9 9 9 7 6 6 6 6 6 4 3 3 4 6 5
9 9 10 10 9 7 7 8 9 9 9 9 9 9 9 9 10 10 10 11 11 11 11 12 12 13 13 13 14 14 13 13 14 13 13 14 15 17 18 18 18 16 16 17 19 20 20 19 17 16 15 14 13 14 11 6 6 9 10 9 10 10 9 7 6 6 7 7 7 5 4 3 4 5
10 10 10 9 8 9 10 10 10 9 9 9 10 10 10 10 10 10 11 11 11 11 12 12 13 13 14 14 14 15 15 15 15 14 14 15 16 17 18 18 17 16 16 17 18 20 21 18 17 15 14 13 13 11 7 5 7 9 9 9 10 11 11 10 8 7 7 8 8 7 6 5 4 4
10 10 10 9 9 9 10 9 7 8 9 9 9 10 11 11 11 11 11 11 11 12 13 13 14 14 15 15 15 16 17 16 16 16 16 16 17 17 16 16 17 16 16 18 19 21 20 17 16 15 14 13 12 10 8 9 10 10 10 10 10 11 11 11 11 9 9 9 9 9 9 7 6 4
10 10 9 10 9 8 9 9 8 8 10 10 10 10 10 12 12 12 13 12 12 12 13 14 15 16 17 17 17 18 18 17 17 17 17 17 18 18 17 17 18 18 19 20 21 21 19 16 15 16 14 13 13 12 11 12 11 10 11 11 10 11 11 11 11 11 10 10 10 10 10 10 9 7
10 9 9 9 9 8 8 8 8 8 8 10 11 11 11 11 12 12 13 13 14 14 15 15 17 17 17 18 18 18 17 17 18 18 19 19 19 19 19 19 21 23 23 21 20 19 17 16 16 16 15 14 13 12 12 13 13 12 11 11 11 11 11 11 12 12 12 12 11 11 12 12 11 10
11 9 8 8 8 7 6 6 6 6 7 8 9 10 11 11 11 12 14 15 15 15 15 16 17 18 17 18 18 18 16 17 18 19 19 20 20 20 20 20 22 25 23 19 17 17 16 16 17 17 16 15 14 13 14 16 15 13 11 9 9 9 9 10 10 11 12 13 12 12 12 13 13 13
10 9 8 8 7 6 5 7 9 8 8 8 9 10 11 12 12 13 15 16 15 15 15 16 18 18 18 18 18 18 17 18 19 19 19 20 20 20 20 20 21 22 19 17 16 16 16 17 18 17 17 16 16 15 15 16 17 14 10 8 7 8 8 9 9 10 11 12 13 13 13 13 14 15
6 6 5 6 6 4 6 9 11 11 10 9 9 10 12 12 13 14 15 16 16 17 17 17 18 19 20 20 21 21 21 22 22 21 20 20 19 19 20 20 21 20 19 17 16 17 17 17 17 18 18 18 17 17 15 15 16 15 12 10 11 12 11 10 10 10 11 12 12 13 12 13 14 15
4 4 4 4 3 3 5 8 10 10 10 9 9 11 12 12 13 14 14 14 16 17 17 18 20 21 21 21 21 21 21 21 20 19 19 18 18 19 19 19 20 21 20 19 18 18 17 16 16 19 19 18 18 17 15 14 14 14 14 15 16 16 14 14 13 13 13 13 13 14 14 14 14 15
5 5 5 5 4 5 7 9 10 10 9 8 10 12 13 14 15 15 14 13 14 15 16 19 21 22 21 21 21 21 21 20 17 17 18 18 18 19 19 19 20 20 21 19 15 14 16 16 17 19 19 19 18 17 14 13 13 14 15 16 18 18 17 17 16 15 16 16 15 15 15 15 15 16
6 5 4 4 5 7 8 9 9 9 9 8 10 12 14 14 14 13 13 13 14 15 17 19 21 21 21 20 20 21 20 19 17 17 18 17 17 19 20 20 19 17 17 16 13 12 15 18 18 18 17 16 16 16 15 14 15 15 16 17 18 19 19 19 19 18 18 18 19 18 17 17 17 18
7 6 4 2 3 5 6 7 7 8 9 9 9 10 11 12 13 13 14 15 16 17 18 19 20 20 19 19 18 18 17 16 16 17 17 16 16 17 19 20 19 17 16 16 15 14 16 19 20 20 17 14 15 18 19 18 18 18 17 17 18 17 18 19 20 20 19 19 19 20 20 19 19 20
7 5 4 2 3 5 5 6 7 7 8 9 9 9 9 11 13 15 16 17 17 17 17 17 17 17 17 16 16 15 15 14 14 14 15 16 17 18 18 19 20 20 19 18 17 18 19 20 21 21 19 17 18 20 20 20 19 18 18 17 16 16 16 16 17 19 20 20 19 20 21 22 22 22
4 3 2 3 6 6 5 6 7 7 8 9 10 10 11 12 13 15 16 17 16 15 15 15 15 15 15 15 15 14 13 12 12 13 13 14 16 18 20 20 21 22 23 22 21 21 21 21 21 20 19 19 20 20 21 21 19 17 16 16 15 14 14 15 16 16 17 18 20 20 20 21 22 22
2 2 3 6 8 7 7 8 9 9 10 11 11 12 13 13 14 15 16 16 14 13 13 14 14 14 13 13 13 12 12 12 13 14 14 15 15 17 19 20 20 22 23 23 21 20 20 21 21 20 20 20 21 20 20 20 18 17 17 17 16 15 15 15 16 16 16 17 19 21 22 21 22 23
3 4 6 9 10 10 11 12 12 13 13 13 13 13 13 14 15 15 14 12 11 12 13 13 12 12 12 11 11 11 12 13 14 15 15 15 15 16 16 17 18 20 21 21 18 17 19 21 22 20 19 19 21 20 19 20 19 18 18 18 17 16 16 16 16 17 18 18 18 19 21 22 23 23
7 8 10 12 12 13 13 14 15 15 15 16 16 15 15 15 14 12 10 9 10 12 12 12 12 12 11 10 10 11 12 13 13 13 13 14 14 15 16 16 17 17 18 18 17 16 16 18 20 21 19 18 19 21 22 23 22 20 19 19 18 17 16 17 18 18 19 20 19 18 18 18 19 21
9 11 12 12 13 14 14 14 15 15 14 16 17 15 14 13 11 9 9 10 11 11 12 12 12 11 11 10 11 12 12 12 12 12 13 15 15 15 16 17 17 17 16 15 15 14 14 15 17 20 20 18 19 21 22 23 22 21 20 20 20 20 17 16 17 18 19 20 20 19 18 18 19 20
10 11 12 13 13 13 12 12 12 12 12 12 12 11 10 10 9 9 10 11 11 11 11 11 11 11 11 11 11 11 11 11 11 11 13 14 14 15 16 17 18 17 16 15 13 12 13 14 16 18 20 20 21 21 21 22 23 23 22 21 20 21 20 18 18 19 19 20 21 21 20 20 20 20
10 11 11 11 10 9 9 9 9 9 8 8 8 9 9 9 10 11 11 11 10 10 9 10 10 10 11 11 11 11 11 11 11 11 12 13 14 15 15 16 17 17 16 15 14 12 13 14 16 18 20 21 22 22 22 22 23 23 24 23 22 23 24 22 20 19 19 20 22 22 22 22 21 21
12 10 9 8 8 7 7 7 7 7 7 8 8 9 9 9 10 10 10 10 9 9 8 9 10 10 10 11 11 11 11 11 11 11 11 12 13 13 14 15 16 16 16 16 15 14 14 15 17 20 21 22 24 24 24 24 23 22 22 23 22 23 23 22 21 20 19 20 21 21 22 22 22 21
11 8 8 7 7 6 7 7 7 7 7 8 9 8 9 9 9 9 8 8 9 8 8 9 10 10 11 12 12 12 12 12 12 12 12 12 12 13 14 16 16 16 16 17 17 16 16 16 18 21 21 21 22 23 23 24 24 23 21 21 21 22 22 21 21 21 19 19 20 20 21 22 22 21
9 8 8 8 7 7 8 8 8 8 8 8 9 9 9 9 8 8 8 8 9 9 10 10 10 10 11 12 12 12 13 13 14 14 13 13 14 14 15 16 17 17 17 18 18 17 17 17 18 19 20 20 20 20 19 19 20 21 21 20 20 21 22 22 22 22 21 21 20 19 19 22 22 21
8 8 8 8 8 8 9 8 8 9 9 9 9 10 10 10 9 9 9 9 10 11 11 11 11 11 12 13 13 13 14 14 15 15 14 14 15 15 16 16 17 18 18 18 18 18 17 17 18 18 18 17 15 14 15 15 16 18 21 22 21 21 23 25 26 25 24 23 21 18 18 20 22 22
8 8 8 8 8 9 9 9 10 10 10 10 10 11 11 11 11 11 11 11 12 13 13 13 13 14 14 14 14 15 16 16 16 16 15 15 15 15 16 16 16 17 17 18 18 18 18 19 19 18 16 13 10 10 15 17 18 18 19 20 21 23 24 26 28 27 26 25 24 22 20 21 23 22
9 9 9 8 8 9 9 9 10 10 10 11 11 11 12 12 12 12 12 13 14 14 14 13 14 15 15 16 17 17 17 17 17 17 17 16 16 16 16 16 17 17 17 18 19 19 19 19 19 18 17 13 9 9 13 17 21 23 22 20 21 24 24 24 25 27 28 27 25 24 24 24 24 22
8 8 9 9 9 9 9 9 10 10 10 11 11 12 12 12 12 13 13 13 14 14 14 13 13 15 17 18 19 19 19 18 19 18 18 18 17 17 17 17 18 18 19 20 20 19 19 18 17 16 16 15 14 16 19 23 27 30 29 27 27 27 25 22 22 25 28 27 26 26 29 29 27 24
7 8 8 9 9 9 10 10 10 10 10 11 11 12 13 13 14 14 14 14 14 14 14 14 16 18 20 21 21 21 20 20 19 19 19 19 18 18 18 18 19 19 19 20 19 18 18 17 16 17 20 22 24 27 27 27 28 30 30 28 27 26 24 22 22 23 25 24 23 23 26 27 25 24
7 8 8 9 9 9 10 10 10 11 11 11 12 13 13 13 14 14 14 15 16 16 17 19 19 20 20 21 21 21 21 21 20 20 20 20 20 20 19 19 19 19 19 19 19 19 19 19 20 23 25 25 25 25 22 20 21 24 27 25 24 24 25 26 25 25 25 26 24 22 24 25 24 23
7 8 8 9 9 9 10 11 12 12 13 13 13 14 14 14 15 15 16 16 16 16 17 19 20 20 20 20 20 21 21 21 21 21 21 21 21 21 21 20 20 20 21 22 22 23 23 23 23 23 22 21 20 19 18 18 19 23 27 26 25 24 26 27 27 26 27 28 26 23 24 23 18 16
8 9 9 9 10 10 11 12 12 13 14 14 14 15 15 16 16 16 17 16 16 16 17 18 19 19 20 20 20 21 22 22 22 22 22 22 22 22 23 23 23 23 23 24 24 24 24 24 23 22 21 21 20 19 20 21 23 24 26 27 27 26 25 26 28 29 29 31 31 30 30 27 20 17
10 10 11 11 12 12 13 13 13 14 14 15 15 15 16 16 16 17 17 17 17 18 18 18 19 19 19 20 20 21 21 21 22 22 23 23 23 24 24 24 24 24 24 24 25 25 24 23 23 22 21 21 20 20 21 22 23 24 26 27 28 29 27 26 28 29 30 32 32 32 34 35 33 33
11 12 12 13 13 14 14 14 15 15 16 16 16 16 16 16 17 17 17 17 17 17 17 18 19 19 19 19 20 20 21 22 22 23 23 24 24 24 24 24 25 24 24 24 24 24 24 23 23 22 22 22 22 21 22 22 23 24 26 28 29 30 29 27 27 27 28 29 29 28 28 30 31 33
Wind_Direction
265 270 266 271 279 286 293 293 297 312 317 314 311 314 326 333 322 308 311 318 322 333 329 325 9 13 344 332 322 326 326 329 343 345 336 340 337 335 347 356 355 351 343 337 331 327 326 324 325 325 323 321 320 320 322 325 330 335 338 341 344 346 354 2 358 0 20 35 34 20 15 142 167 170
266 274 277 277 280 283 288 290 296 306 305 304 306 312 319 314 306 308 312 318 325 327 319 322 342 352 340 331 328 334 331 328 341 343 336 337 342 347 352 352 355 357 351 344 338 332 326 321 321 323 325 327 325 322 317 316 320 328 334 339 341 343 347 358 359 354 5 28 37 29 3 7 159 173
264 270 277 280 280 284 291 294 298 300 299 302 305 306 307 302 298 305 308 308 319 316 309 317 328 330 335 336 331 332 330 331 341 342 333 332 341 347 342 333 339 349 353 351 346 342 336 328 324 322 325 328 328 327 321 315 314 318 327 334 338 340 341 350 358 351 354 15 32 35 19 358 46 170
268 269 273 276 278 283 287 291 293 291 290 293 297 300 303 298 292 296 301 301 307 309 307 313 318 322 330 332 329 330 326 330 340 337 330 329 332 334 329 324 324 331 345 352 352 351 351 348 344 339 337 336 332 330 327 322 317 316 322 329 335 337 336 343 354 351 347 1 23 33 33 12 33 162
266 266 268 274 276 278 280 284 287 287 286 284 286 293 299 300 301 305 304 303 306 309 309 312 313 320 326 325 327 329 324 327 333 330 328 327 324 323 323 323 317 314 327 341 349 353 356 358 359 355 349 345 337 329 325 322 320 318 320 325 330 332 332 338 348 348 343 350 11 28 33 35 192 172
257 260 265 271 269 265 266 273 279 281 285 288 293 298 303 307 310 313 310 309 310 311 313 314 313 317 323 321 324 325 321 325 327 325 327 325 322 322 322 320 315 310 317 330 339 346 347 349 354 356 352 345 337 328 321 317 315 315 316 320 324 326 328 332 341 344 338 343 358 17 30 37 221 204
249 252 258 264 264 263 266 272 277 281 284 288 293 295 297 299 303 307 306 303 306 309 312 312 311 316 321 317 317 318 318 320 321 322 324 323 320 319 319 318 315 314 318 325 332 336 337 338 343 349 351 347 337 328 321 315 312 312 312 315 319 319 322 325 330 332 330 336 350 4 21 32 44 209
251 253 257 259 259 264 270 273 274 276 279 284 287 287 290 292 295 300 299 296 300 302 304 306 309 313 313 309 311 315 316 317 318 318 318 319 319 316 316 316 315 316 318 323 328 329 330 331 330 336 344 347 340 328 321 317 313 312 310 310 314 316 317 317 316 317 314 325 345 354 8 22 34 168
251 253 255 257 259 261 264 267 270 274 281 286 286 287 292 295 296 298 295 294 295 296 299 303 305 304 303 304 308 310 311 314 317 317 315 316 317 315 315 315 316 317 318 321 325 325 326 328 324 326 335 342 343 333 321 316 313 311 306 302 307 315 316 311 306 300 291 298 334 346 356 9 20 39
241 245 250 254 256 258 262 268 273 278 281 282 284 289 294 295 296 295 293 293 293 292 294 296 298 300 302 303 305 306 307 309 312 315 313 312 314 314 314 314 316 318 318 319 322 322 323 324 321 321 326 334 340 338 324 313 309 307 302 297 298 307 313 309 300 289 277 268 303 335 346 356 5 17
237 238 243 247 248 252 258 265 270 274 277 279 283 287 290 292 293 293 292 292 292 291 290 291 294 297 300 300 302 304 302 298 300 307 308 308 310 312 311 312 315 318 318 318 321 324 323 322 320 319 321 324 330 335 333 318 308 303 296 291 288 292 303 303 293 283 272 259 256 306 333 344 348 356
240 241 242 245 248 248 249 256 267 272 276 281 282 283 286 288 289 289 290 290 289 288 289 291 293 295 297 296 298 302 304 301 302 306 306 305 307 309 311 311 312 315 316 317 321 324 324 321 319 318 318 317 319 326 332 331 320 308 296 289 283 279 284 292 286 276 268 260 250 260 302 330 336 338
244 244 245 247 246 246 250 259 267 270 271 274 277 280 284 286 286 286 287 287 287 287 288 290 291 292 292 294 299 304 307 306 305 304 304 304 305 308 309 308 310 314 315 316 318 321 322 319 316 314 315 316 316 319 327 335 325 313 304 296 288 278 271 272 275 270 263 259 253 248 261 296 319 326
247 245 247 249 250 256 265 269 269 268 268 269 272 273 276 279 283 286 286 285 286 288 290 291 292 292 294 298 303 305 305 304 304 304 306 305 305 307 305 304 309 314 317 317 314 314 316 315 311 310 311 313 317 320 319 312 305 306 306 301 294 285 273 263 262 263 259 256 254 249 249 261 282 308
251 250 249 250 249 253 260 266 272 276 275 274 273 272 270 269 269 270 274 280 284 286 288 289 291 292 294 297 299 300 302 303 304 304 303 301 301 302 300 301 306 312 317 316 309 306 310 310 306 306 308 310 315 316 308 304 304 301 299 296 292 289 281 268 258 257 257 254 252 249 248 251 255 270
252 254 253 253 252 250 250 255 266 274 277 278 277 274 270 265 261 257 258 262 268 274 281 286 288 289 291 294 295 297 301 303 302 299 296 295 296 295 295 297 300 306 310 309 304 302 305 307 304 303 305 307 309 310 305 306 313 308 294 287 287 286 284 275 263 256 255 255 253 250 247 247 249 250
250 252 255 258 259 257 256 260 264 265 267 274 279 281 277 270 267 265 264 265 266 268 272 277 280 283 286 288 289 291 295 297 296 294 293 295 295 293 294 295 296 301 304 302 300 300 301 306 308 306 308 308 306 305 301 300 310 315 298 281 279 281 279 277 270 261 256 256 255 253 249 246 246 247
246 244 246 251 255 257 256 251 251 259 267 271 274 277 275 270 270 274 279 282 281 275 269 269 273 276 279 282 284 287 289 289 290 292 293 295 295 292 293 293 292 295 297 295 294 296 299 307 312 310 311 310 305 303 300 296 301 311 305 283 275 280 283 281 275 266 259 257 256 256 252 247 244 245
246 245 245 249 250 249 241 236 240 251 266 272 274 276 276 275 274 275 278 280 280 278 272 269 272 275 276 278 282 284 285 284 285 288 289 290 290 290 291 291 289 291 294 294 292 291 295 305 310 311 312 312 308 305 302 299 299 301 301 295 289 291 292 286 280 270 262 258 257 257 256 251 245 242
243 243 243 250 252 239 235 243 250 258 266 273 279 281 282 284 283 283 283 282 283 287 288 283 282 283 281 281 282 282 282 282 283 286 288 287 285 286 289 289 290 295 300 301 299 295 295 300 305 309 312 313 308 304 301 300 298 290 284 293 304 303 294 282 276 270 263 259 258 258 257 254 249 244
230 230 233 248 259 240 240 253 265 272 277 282 284 283 286 290 289 289 291 289 287 292 297 299 298 298 297 297 296 293 291 291 289 284 281 282 284 286 288 288 292 298 301 304 305 299 294 298 304 307 311 310 305 302 299 299 298 289 283 290 301 303 300 290 278 268 260 257 256 257 258 257 252 246
220 223 236 243 239 242 253 264 276 284 289 294 291 289 291 291 290 294 299 299 296 296 298 301 302 303 304 305 304 302 302 304 299 282 273 278 285 286 285 288 293 295 296 303 312 305 296 302 307 308 310 309 302 302 303 303 302 298 294 297 300 303 305 302 292 276 262 255 252 251 251 252 250 246
216 209 233 250 247 255 267 273 280 287 293 294 293 294 294 291 292 300 306 306 305 302 298 297 297 298 299 298 298 298 300 304 302 288 277 276 280 280 281 285 290 290 292 303 314 306 299 304 308 309 311 309 305 307 307 303 300 298 296 296 297 299 301 302 300 290 273 260 253 249 246 245 245 245
227 209 210 243 270 277 278 280 288 295 299 301 301 298 295 292 295 302 304 302 301 299 295 293 293 293 293 291 290 290 291 293 293 288 279 271 273 279 283 284 285 285 290 301 311 310 305 303 302 304 306 303 302 305 305 302 301 300 297 295 293 294 296 298 302 301 290 275 261 254 250 248 245 243
249 223 194 212 289 286 282 287 298 306 308 312 311 303 294 294 296 300 301 301 300 298 295 293 293 294 294 293 291 290 289 287 287 285 279 272 272 277 282 287 289 289 291 300 310 313 309 302 298 300 301 297 295 298 301 301 301 300 299 297 294 292 293 294 298 299 296 289 278 266 257 252 249 247
279 269 226 282 292 288 293 301 304 309 311 311 309 304 302 304 305 306 307 306 302 298 296 296 296 297 297 297 297 296 296 297 298 297 291 284 279 276 278 282 286 289 292 297 303 304 300 296 295 298 298 296 295 297 298 297 298 300 301 299 295 294 292 288 289 291 289 288 288 283 273 262 254 251
322 327 302 299 298 301 308 309 308 312 312 307 304 303 303 305 307 309 311 307 298 294 297 298 297 297 298 299 302 306 308 311 313 310 303 296 291 286 283 283 283 285 289 294 296 294 289 287 288 290 292 293 294 294 293 293 296 299 301 300 300 299 293 287 285 286 283 280 283 284 282 275 267 258
315 303 295 297 301 306 308 307 308 309 309 307 304 301 300 303 307 308 307 300 292 293 295 295 294 297 300 302 307 313 315 313 312 310 305 300 298 295 293 291 289 288 290 292 290 285 282 282 283 285 286 288 289 289 290 291 293 295 297 300 301 298 294 291 286 284 283 279 274 272 273 275 277 272
286 287 289 293 295 297 298 300 302 302 301 301 301 300 301 303 302 296 290 288 291 292 292 293 296 298 300 303 308 313 315 313 310 308 307 306 306 303 300 298 296 295 295 293 289 284 280 280 284 286 286 284 283 287 289 290 289 289 291 295 296 294 291 288 283 281 280 277 272 267 264 267 274 277
294 295 296 297 297 296 295 296 296 295 294 295 297 299 300 297 288 278 279 285 287 286 288 291 293 296 301 306 310 311 311 309 308 310 311 310 309 309 308 306 304 301 299 296 295 293 290 287 290 292 291 288 285 286 288 289 289 290 290 291 292 293 290 283 279 278 274 273 272 269 265 264 266 268
308 304 305 307 305 303 302 299 297 296 294 292 292 294 291 284 277 275 281 284 281 279 283 288 291 297 304 307 308 308 306 305 309 315 317 316 314 315 313 309 305 304 303 302 302 302 299 297 297 295 294 292 289 287 286 287 288 290 291 288 286 287 288 284 280 276 272 272 273 270 265 264 263 261
315 308 306 308 304 300 300 300 298 293 287 282 284 286 284 283 282 278 277 279 278 276 282 291 296 300 303 304 305 305 304 307 311 314 315 314 313 313 312 308 305 307 308 309 308 308 307 305 303 300 295 290 288 288 288 287 285 286 288 289 287 285 285 282 278 276 275 273 272 270 266 261 259 260
327 317 303 296 293 292 296 300 299 295 293 292 291 289 287 286 285 282 279 281 282 283 289 294 295 297 299 300 301 301 300 303 305 306 307 306 304 305 303 301 301 304 306 307 307 308 309 311 313 311 305 296 290 286 283 282 284 285 287 289 290 286 283 280 278 276 277 273 270 269 267 262 259 260
326 312 297 295 297 299 301 303 302 303 306 304 301 300 294 288 286 287 286 286 288 292 295 293 294 299 301 299 299 300 301 302 303 303 301 299 297 298 298 296 298 300 300 300 301 303 304 307 311 312 310 307 301 291 280 276 278 283 286 287 286 285 284 283 280 277 275 272 271 271 269 265 262 257
311 296 295 301 303 302 302 303 304 306 307 305 305 307 303 298 295 291 290 293 297 298 295 293 296 300 301 300 301 303 304 304 304 302 300 297 295 294 293 294 295 296 297 296 298 299 300 301 304 306 306 307 306 301 293 283 276 280 285 286 286 286 285 285 286 284 282 278 274 271 271 271 268 261
303 296 300 301 301 302 302 303 305 306 307 307 308 307 304 302 299 296 296 301 301 295 292 293 295 297 299 302 304 305 305 304 301 300 299 299 297 295 293 293 293 294 296 295 296 299 300 300 300 299 298 300 301 300 300 299 291 286 287 289 292 293 292 293 294 291 285 280 275 268 266 268 270 268
297 298 299 296 297 301 300 301 304 304 303 304 304 302 300 298 296 296 300 300 293 287 285 286 288 293 299 304 306 306 305 303 300 300 300 299 298 297 295 295 295 296 296 296 298 300 300 298 297 294 291 293 295 289 293 299 299 293 288 286 289 292 294 295 294 290 283 278 274 271 269 268 269 271
291 294 296 296 298 299 298 299 299 298 298 299 298 296 295 293 292 294 298 297 291 287 284 283 286 292 298 303 305 306 304 303 301 301 300 298 298 298 297 296 297 298 298 298 299 299 297 294 293 291 288 287 287 292 300 304 302 298 293 284 280 284 287 287 286 284 283 282 279 278 278 276 273 274
287 291 293 295 296 296 296 296 295 295 296 296 296 296 296 295 295 294 294 292 292 294 293 292 295 297 298 298 300 300 300 301 301 301 300 299 298 298 297 297 298 298 299 298 297 296 295 293 292 294 298 299 299 301 302 298 294 291 289 283 277 274 273 273 275 278 281 283 285 287 286 283 279 279
287 290 291 292 294 295 295 296 295 296 297 298 299 300 299 298 297 296 295 296 299 299 296 294 295 295 294 294 295 296 296 297 298 298 299 300 299 299 299 299 298 298 296 295 295 295 296 295 298 305 308 304 298 293 289 285 283 283 284 284 282 275 267 264 268 273 276 281 285 287 285 283 282 284
299 298 295 295 297 297 297 298 298 298 300 301 301 301 300 299 298 296 298 300 300 296 291 288 289 290 290 291 293 294 294 294 296 297 298 299 299 298 299 298 297 295 294 294 295 295 296 297 300 302 301 296 292 288 284 280 282 285 286 288 288 283 275 268 264 265 270 277 280 277 275 277 281 283
306 303 300 301 302 301 302 302 301 301 301 300 300 300 300 298 296 294 294 294 292 291 290 288 287 288 289 289 290 292 292 293 294 295 296 297 298 298 299 299 297 297 297 296 294 294 296 298 299 298 296 293 291 288 285 284 286 289 291 292 292 289 284 277 270 265 265 270 270 267 267 271 275 275
309 307 306 307 308 307 306 304 301 301 300 299 299 300 298 297 296 295 293 292 291 292 292 291 290 289 289 290 291 291 290 291 292 294 295 297 298 298 298 296 296 295 293 292 292 294 295 297 297 296 294 291 288 285 284 286 289 291 292 294 295 294 291 287 282 276 270 266 262 260 261 263 260 257
308 308 307 307 307 307 306 305 303 303 302 301 300 298 296 295 295 294 293 292 292 292 291 291 292 291 290 290 291 290 290 291 293 296 296 295 295 294 293 293 294 293 292 292 294 294 295 295 296 295 291 288 287 286 285 287 290 291 292 295 296 296 295 291 287 283 277 271 264 260 259 258 257 258
303 302 302 303 304 303 302 302 303 303 303 303 302 301 300 300 298 298 297 296 297 298 296 295 295 294 293 293 293 293 293 295 295 294 293 292 291 291 290 292 292 292 292 293 293 293 295 295 295 293 291 288 288 287 286 287 289 290 292 293 293 293 294 292 289 286 281 276 272 268 263 260 259 260